CAPE
3 4 4 2 3 2 3 2 2 3 2 0 2 3 2 2 1 1 0 0 0 0 0 0 0 0 0 0 0 0 0 0 0 0 0 0 0 0 0 0 0 0 0 0 0 0 0
2 1 2 3 3 2 2 3 3 3 2 1 2 1 3 1 0 0 0 0 0 0 0 0 0 0 0 0 0 0 0 0 0 0 0 0 0 0 0 0 0 0 0 0 0 0 0
1 1 1 1 1 1 1 2 3 4 6 3 3 2 2 1 1 0 0 0 0 0 0 0 0 0 0 0 0 0 0 0 0 0 0 0 0 0 0 0 0 0 0 0 0 0 0
0 0 0 0 0 0 0 0 0 1 1 1 1 1 2 2 1 0 0 0 0 0 0 0 0 0 0 0 0 0 0 0 0 0 0 0 0 0 0 0 0 0 0 0 0 0 0
0 0 0 0 0 0 0 0 0 0 0 0 0 0 1 2 0 0 0 0 0 0 0 0 0 0 0 0 0 0 0 0 0 0 0 0 0 0 0 0 0 0 0 0 0 0 0
0 0 0 0 0 0 0 0 0 0 0 0 0 0 0 1 0 0 0 0 0 0 0 0 0 0 0 0 0 0 0 0 0 0 0 0 0 0 0 0 0 0 0 0 0 0 0
0 0 0 0 1 2 2 2 2 2 2 2 2 2 1 1 0 0 0 0 0 0 0 0 0 0 0 0 0 0 0 0 0 0 0 0 0 0 0 0 0 0 0 0 0 0 0
1 2 3 2 1 1 1 1 1 2 2 3 4 2 2 2 0 0 0 0 0 0 0 0 0 0 0 0 0 0 0 0 0 0 0 0 0 0 0 0 0 0 0 0 0 0 0
1 1 1 1 1 1 1 1 1 2 1 2 2 2 1 0 0 0 0 0 0 0 0 0 0 0 0 0 0 0 0 0 0 0 0 0 0 0 0 0 0 0 0 0 0 0 0
1 1 0 1 1 1 1 1 1 2 1 0 2 3 2 0 0 0 0 0 0 0 0 0 0 0 0 0 0 0 0 0 0 0 0 0 0 0 0 0 0 0 0 0 0 0 0
1 1 3 1 1 1 1 2 2 2 2 0 0 0 0 0 0 0 0 0 0 0 0 0 0 0 0 0 0 0 0 0 0 0 0 0 5 5 7 7 1 0 0 0 0 0 0
1 1 1 1 2 2 1 1 2 2 1 0 0 0 0 0 0 0 0 0 0 0 0 0 0 0 0 0 0 0 1 0 1 0 14 27 26 37 29 25 16 3 0 4 1 0 2
1 1 1 1 1 1 0 0 1 0 0 0 0 0 0 0 0 0 0 0 0 0 0 0 0 0 0 0 0 7 14 16 12 23 32 24 29 24 24 44 34 29 12 3 13 6 0
1 1 1 0 0 2 2 0 0 0 0 0 0 0 0 0 0 0 0 1 0 0 0 0 0 0 0 0 2 21 37 39 18 58 92 29 24 2 2 87 155 53 47 39 22 10 12
1 1 1 0 1 2 3 0 0 0 0 0 0 0 0 2 0 0 0 1 7 0 0 0 0 0 4 11 10 24 29 37 13 39 48 32 39 4 50 46 164 137 61 104 71 30 0
1 2 1 0 0 2 2 0 0 0 0 0 0 0 7 0 0 0 0 0 0 0 0 0 0 2 6 20 12 19 28 26 7 25 39 82 20 62 56 48 43 94 97 83 43 4 7
1 1 1 0 0 2 1 0 0 0 0 0 0 0 0 0 0 1 0 0 0 0 0 0 5 9 13 10 23 27 28 26 24 22 38 51 30 18 80 177 149 1 0 32 49 0 3
1 1 0 0 0 0 0 0 0 0 0 0 0 3 0 0 0 3 0 0 0 0 2 5 5 10 26 21 14 11 17 40 17 43 20 31 37 13 15 7 132 96 101 16 5 4 26
1 1 1 0 0 0 0 0 0 0 0 4 0 0 0 0 0 0 0 0 0 0 6 8 9 14 13 4 7 16 27 29 23 32 29 22 17 32 24 49 44 61 90 111 57 3 4
1 1 1 1 0 0 0 0 0 0 0 0 0 0 0 0 0 1 2 0 0 1 6 8 3 5 5 10 22 14 13 2 0 0 13 26 9 20 16 1 0 0 6 65 39 1 0
2 2 1 1 1 0 1 0 0 0 0 0 0 0 0 0 0 2 4 9 3 4 11 6 10 10 9 6 6 0 1 2 2 2 10 4 0 8 16 23 45 42 35 17 4 0 0
2 0 1 2 0 1 2 0 0 0 0 3 0 1 0 0 1 2 2 1 11 3 4 4 2 10 6 0 1 0 2 1 2 0 7 6 0 3 4 22 55 60 42 44 22 0 0
2 1 2 2 3 1 0 0 0 0 0 3 6 0 7 0 0 0 3 3 2 10 0 8 3 5 4 4 7 5 2 0 2 1 1 0 2 4 3 18 49 42 79 64 40 0 0
2 1 2 3 2 2 4 4 2 0 1 31 4 1 2 1 0 0 0 1 3 2 6 1 1 9 2 1 0 0 1 0 0 4 1 0 1 12 7 13 19 86 64 74 69 70 0
3 1 2 2 4 6 4 5 0 0 0 15 45 1 2 1 4 0 1 0 0 4 4 2 1 14 4 4 7 0 15 8 23 16 2 2 1 4 14 13 1 21 96 25 101 75 10
1 1 1 0 1 2 6 4 7 5 1 0 20 24 2 1 0 4 2 1 1 3 0 0 0 1 4 15 9 3 21 8 0 6 1 1 0 0 12 5 1 19 29 60 161 36 48
0 1 1 1 1 3 4 4 4 5 6 5 3 14 11 6 0 2 6 3 9 12 7 1 2 0 18 16 2 8 8 21 3 0 1 0 0 0 0 2 1 2 5 8 4 21 127
0 1 0 1 2 0 5 3 4 5 4 10 3 13 25 12 1 2 4 3 4 9 4 1 0 6 5 23 9 16 16 7 2 9 1 0 0 0 1 1 1 0 1 4 0 29 6
0 0 1 2 3 1 4 2 4 2 6 5 2 8 38 37 0 0 0 0 0 2 6 4 4 4 14 3 0 6 15 12 8 0 0 0 0 0 0 0 3 3 5 2 1 3 0
CIN
-0 -0 -0 -0 -0 -0 -0 -0 -0 -0 -0 -0 -0 -0 -0 -0 -0 -0 -0 -0 -0 -0 -0 -0 -0 -0 -0 -0 -0 -0 -0 -0 -0 -0 -0 -0 -0 -0 -0 -0 -0 -0 -0 -0 -0 -0 -0
-0 -0 -0 -0 -0 -0 -0 -0 -0 -0 -0 -0 -0 -0 -0 -0 -0 -0 -0 -0 -0 -0 -0 -0 -0 -0 -0 -0 -0 -0 -0 -0 -0 -0 -0 -0 -0 -0 -0 -0 -0 -0 -0 -0 -0 -0 -0
-0 -0 -0 -0 -0 -0 -0 -0 -0 -0 -0 -0 -0 -0 -0 -0 -0 -0 -0 -0 -0 -0 -0 -0 -0 -0 -0 -0 -0 -0 -0 -0 -0 -0 -0 -0 -0 -0 -0 -0 -0 -0 -0 -0 -0 -0 -0
-0 -0 -0 -0 -0 -0 -0 -0 -0 -0 -0 -0 -0 -0 -0 -0 -0 -0 -0 -0 -0 -0 -0 -0 -0 -0 -0 -0 -0 -0 -0 -0 -0 -0 -0 -0 -0 -0 -0 -0 -0 -0 -0 -0 -0 -0 -0
-0 -0 -0 -0 -0 -0 -0 -0 -0 -0 -0 -0 -0 -0 -0 -0 -0 -0 -0 -0 -0 -0 -0 -0 -0 -0 -0 -0 -0 -0 -0 -0 -0 -0 -0 -0 -0 -0 -0 -0 -0 -0 -0 -0 -0 -0 -0
-0 -0 -0 -0 -0 -0 -0 -0 -0 -0 -0 -0 -0 -0 -0 -0 -0 -0 -0 -0 -0 -0 -0 -0 -0 -0 -0 -0 -0 -0 -0 -0 -0 -0 -0 -0 -0 -0 -0 -0 -0 -0 -0 -0 -0 -0 -0
-0 -0 -0 -0 -0 -0 -0 -0 -0 -0 -0 -0 -0 -0 -0 -0 -0 -0 -0 -0 -0 -0 -0 -0 -0 -0 -0 -0 -0 -0 -0 -0 -0 -0 -0 -0 -0 -0 -0 -0 -0 -0 -0 -0 -0 -0 -0
-0 -0 -0 -0 -0 -0 -0 -0 -0 -0 -0 -0 -0 -0 -0 -0 -0 -0 -0 -0 -0 -0 -0 -0 -0 -0 -0 -0 -0 -0 -0 -0 -0 -0 -0 -0 -0 -0 -0 -0 -0 -0 -0 -0 -0 -0 -0
-0 -0 -0 -0 -0 -0 -0 -0 -0 -0 -0 -0 -0 -0 -0 -0 -0 -0 -0 -0 -0 -0 -0 -0 -0 -0 -0 -0 -0 -0 -0 -0 -0 -0 -0 -0 -0 -0 -0 -0 -0 -0 -0 -0 -0 -0 -0
-0 -0 -0 -0 -0 -0 -0 -0 -0 -0 -0 -0 -0 -0 -0 -0 -0 -0 -0 -0 -0 -0 -0 -0 -0 -0 -0 -0 -0 -0 -0 -0 -0 -0 -0 -0 -0 -0 -0 -0 -0 -0 -0 -0 -0 -0 -0
-0 -0 -0 -0 -0 -0 -0 -0 -0 -0 -0 -0 -0 -0 -0 -0 -0 -0 -0 -0 -0 -0 -0 -0 -0 -0 -0 -0 -0 -0 -0 -0 -0 -0 -0 -0 -6 -10 -10 -8 -9 -0 -0 -0 -0 -0 -0
-0 -0 -0 -0 -0 -0 -0 -0 -0 -0 -0 -0 -0 -0 -0 -0 -0 -0 -0 -0 -0 -1 -1 -0 -0 -0 -0 -0 -0 -1 -1 -2 -4 -0 -12 -7 -7 -19 -5 -9 -11 -15 -2 -6 -7 -0 -1
-0 -0 -0 -1 -1 -2 -2 -1 -0 -0 -0 -0 -0 -0 -0 -0 -0 -0 -0 -0 -4 -0 -0 -0 -0 -0 -0 -4 -0 -7 -5 -5 -7 -9 -9 -9 -9 -15 -19 -5 -7 -7 -8 -8 -9 -8 -10
-0 -0 -0 -0 -2 -0 -1 -0 -0 -0 -0 -0 -0 -0 -0 -0 -0 -0 -0 -5 -1 -0 -0 -0 -0 -0 -3 -1 -5 -6 -7 -4 -11 -8 -6 -10 -4 -8 -7 -2 -6 -12 -10 -8 -10 -12 -10
-0 -0 -0 -1 -4 -0 -0 -0 -0 -0 -0 -0 -0 -0 -0 -1 -0 -0 -0 -4 -2 -0 -0 -0 -0 -1 -2 -5 -4 -5 -7 -5 -5 -7 -7 -8 -9 -38 -12 -8 -7 -5 -9 -7 -7 -9 -35
-0 -0 -1 -3 -4 -1 -0 -0 -0 -0 -0 -0 -0 -0 -2 -0 -0 -0 -2 -0 -0 -0 -0 -0 -1 -2 -3 -3 -3 -5 -5 -6 -4 -6 -5 -4 -6 -5 -6 -8 -16 -5 -5 -9 -20 -7 -8
-0 -1 -1 -0 -0 -2 -1 -0 -0 -0 -0 -0 -0 -0 -0 -0 -0 -2 -0 -0 -0 -0 -0 -0 -2 -2 -3 -5 -4 -5 -6 -6 -7 -6 -5 -6 -4 -5 -8 -3 -5 -9 -22 -4 -6 -0 -8
-1 -0 -1 -2 -0 -1 -4 -0 -0 -0 -0 -0 -0 -1 -0 -0 -0 -2 -0 -0 -0 -0 -3 -3 -2 -3 -2 -3 -4 -5 -3 -8 -15 -5 -3 -6 -6 -4 -20 -11 -8 -4 -15 -4 -5 -1 -9
-0 -1 -4 -0 -0 -5 -0 -0 -0 -0 -0 -1 -0 -0 -0 -0 -0 -0 -0 -0 -0 -0 -2 -3 -3 -4 -5 -4 -6 -1 -2 -4 -5 -7 -3 -4 -2 -3 -8 -7 -12 -8 -10 -5 -3 -5 -17
-2 -4 -2 -1 -0 -0 -0 -0 -0 -0 -0 -1 -0 -1 -0 -0 -0 -1 -2 -0 -0 -1 -2 -3 -5 -4 -4 -2 -4 -2 -3 -3 -0 -0 -14 -6 -1 -2 -3 -4 -0 -0 -44 -9 -6 -1 -7
-6 -4 -1 -0 -0 -0 -0 -0 -0 -0 -0 -0 -0 -0 -0 -0 -1 -1 -1 -3 -2 -2 -3 -6 -3 -5 -1 -0 -3 -1 -5 -4 -0 -1 -0 -1 -0 -2 -3 -4 -6 -17 -17 -6 -5 -0 -0
-6 -0 -1 -0 -0 -0 -0 -0 -0 -0 -0 -1 -0 -1 -0 -0 -1 -2 -1 -3 -3 -3 -3 -3 -5 -4 -3 -1 -2 -1 -2 -1 -0 -0 -0 -0 -0 -1 -3 -8 -9 -6 -5 -6 -4 -0 -2
-6 -0 -1 -0 -0 -0 -0 -0 -0 -0 -0 -0 -1 -0 -0 -0 -0 -2 -1 -1 -2 -1 -0 -2 -4 -3 -3 -3 -3 -3 -2 -0 -1 -0 -0 -0 -0 -1 -2 -5 -7 -7 -6 -5 -5 -0 -0
-2 -1 -0 -0 -0 -1 -0 -0 -0 -0 -0 -0 -2 -0 -0 -0 -0 -0 -0 -1 -1 -1 -1 -1 -1 -3 -3 -3 -0 -0 -1 -2 -2 -2 -1 -0 -0 -1 -1 -5 -6 -7 -7 -9 -6 -6 -0
-0 -0 -0 -0 -0 -0 -0 -0 -0 -0 -0 -1 -0 -0 -0 -0 -0 -0 -0 -1 -0 -1 -1 -1 -1 -3 -2 -2 -3 -0 -4 -4 -2 -0 -0 -0 -0 -0 -0 -2 -1 -16 -3 -4 -5 -4 -7
-0 -0 -0 -0 -0 -0 -1 -0 -2 -4 -2 -2 -1 -0 -0 -0 -2 -1 -1 -1 -2 -0 -0 -2 -0 -1 -2 -1 -1 -1 -0 -1 -3 -0 -0 -0 -0 -0 -3 -1 -0 -4 -9 -20 -3 -28 -6
-0 -0 -0 -0 -0 -0 -0 -0 -0 -2 -4 -1 -1 -2 -1 -0 -0 -1 -0 -1 -1 -0 -0 -1 -1 -0 -2 -2 -1 -3 -1 -4 -1 -0 -0 -0 -0 -0 -2 -0 -1 -5 -1 -10 -0 -11 -1
-0 -0 -0 -0 -0 -0 -0 -0 -0 -0 -2 -0 -1 -1 -0 -0 -2 -1 -1 -1 -1 -0 -0 -0 -0 -1 -1 -1 -1 -1 -3 -1 -0 -2 -7 -0 -0 -0 -0 -0 -0 -0 -0 -0 -0 -2 -0
-0 -0 -0 -0 -0 -0 -0 -0 -0 -1 -1 -4 -0 -1 -1 -0 -0 -0 -0 -0 -0 -2 -0 -1 -0 -0 -0 -0 -0 -1 -0 -0 -0 -0 -0 -0 -0 -0 -0 -0 -0 -0 -0 -0 -0 -0 -0
Wind_Speed
12 9 7 6 3 23 27 27 27 28 28 28 28 28 28 29 29 30 30 30 30 31 32 31 30 29 25 20 20 20 22 24 28 25 26 27 29 30 38 37 37 48 52 52 52 47 50
9 11 15 15 13 22 30 29 30 30 29 29 29 29 29 30 31 31 31 31 31 32 32 30 27 25 22 23 22 23 26 27 26 26 26 25 28 30 39 39 41 42 50 57 52 50 50
17 11 12 18 25 28 31 31 30 30 30 30 31 31 31 32 32 32 32 32 32 33 31 27 23 20 22 22 22 25 25 27 26 27 27 26 27 31 29 35 41 44 53 52 52 47 53
9 4 5 10 19 27 31 31 26 23 23 25 27 30 31 32 32 32 33 33 34 32 25 22 19 19 21 18 23 25 28 29 27 24 27 29 30 33 37 38 47 39 43 53 54 43 45
10 16 16 14 12 11 8 11 18 21 21 23 25 29 31 31 32 31 30 31 32 21 16 16 17 16 18 16 23 29 27 28 30 30 26 25 31 32 30 34 42 42 53 50 55 44 47
33 24 11 23 6 6 11 12 15 18 20 21 19 20 18 18 18 20 21 16 20 15 13 13 16 19 15 24 30 30 26 28 30 28 28 25 28 30 30 34 48 45 47 51 58 50 39
33 33 29 6 18 25 19 18 18 17 16 19 20 20 17 14 12 10 24 17 20 16 11 25 26 24 23 28 29 27 24 28 24 27 30 27 30 34 34 35 43 48 53 57 52 45 45
34 34 35 34 29 25 27 24 20 20 22 25 25 21 15 10 7 5 9 24 23 23 26 19 17 16 21 23 28 28 23 30 31 34 32 31 33 32 34 35 42 47 51 57 55 52 45
34 35 36 37 37 38 38 36 32 28 27 29 30 27 17 9 5 7 17 21 20 23 19 17 13 15 20 21 29 29 27 29 32 35 32 35 36 37 37 38 42 43 48 52 54 50 49
35 36 37 38 38 39 39 39 38 35 35 36 34 30 14 3 15 19 15 19 17 20 21 15 13 18 19 25 25 24 25 24 31 35 36 37 35 35 37 41 39 47 41 45 51 50 57
34 36 37 38 40 40 40 39 39 38 34 31 36 36 23 12 19 17 20 17 19 14 22 17 16 19 19 22 26 26 21 26 34 36 36 39 38 40 42 40 36 45 41 43 45 52 52
33 36 37 39 40 42 42 42 41 41 39 35 37 36 21 16 14 20 17 19 15 17 21 18 18 20 26 28 23 24 25 22 25 30 31 36 31 36 36 37 34 34 39 42 44 48 60
30 31 32 35 38 41 44 44 45 44 44 42 40 30 13 17 20 20 17 14 19 20 19 20 22 24 28 25 28 25 30 30 29 33 36 36 32 26 22 29 27 29 33 42 47 50 58
25 28 29 32 33 37 41 45 46 46 45 43 39 22 12 12 18 18 15 14 20 23 22 22 21 23 20 22 25 23 27 27 25 24 32 31 28 21 24 23 31 28 32 38 46 48 49
27 28 29 30 34 37 38 41 45 47 47 45 38 15 12 14 16 17 15 17 20 24 23 23 23 20 20 21 25 23 17 15 15 18 29 31 25 34 33 25 23 30 32 30 41 47 47
26 27 30 30 33 37 35 36 43 43 48 40 28 18 12 17 16 14 13 17 18 19 19 18 21 17 22 24 23 20 14 6 4 3 0 23 38 33 31 28 16 10 23 23 22 38 44
25 27 30 31 34 36 36 35 38 42 48 15 17 18 16 17 15 11 17 19 21 20 17 18 17 18 18 17 13 6 5 3 1 5 2 8 23 32 31 31 32 22 28 30 30 33 33
25 26 26 27 29 30 32 31 29 29 37 27 18 17 17 18 15 14 16 22 19 17 15 15 12 13 11 1 15 13 12 4 3 3 7 6 10 14 18 32 7 28 26 32 33 32 39
23 21 19 18 20 25 30 31 35 36 36 22 16 14 16 17 17 21 17 20 16 15 16 16 14 10 7 17 11 3 5 8 13 8 10 3 3 7 11 17 24 27 28 31 30 30 37
19 17 17 17 17 18 20 22 23 22 21 20 16 18 17 16 15 19 25 21 22 18 15 17 12 2 8 14 7 11 12 10 20 13 22 22 10 14 19 27 16 27 29 29 31 31 36
17 15 12 15 17 19 20 20 21 18 10 15 18 21 17 19 18 21 18 14 18 18 16 14 10 5 6 11 15 15 10 16 13 10 11 10 10 11 22 26 41 37 36 32 35 39 43
16 12 14 18 17 19 20 20 21 20 10 14 18 17 15 11 16 21 18 17 19 19 17 12 3 10 15 13 11 20 21 20 11 9 2 3 6 11 13 17 37 42 41 38 39 43 44
15 13 16 20 19 19 19 20 22 23 21 20 18 16 17 18 17 17 20 19 18 17 13 12 0 18 21 14 13 18 21 17 11 5 5 6 3 4 10 13 18 36 39 39 40 44 45
17 20 20 22 20 17 17 18 20 21 22 18 17 17 18 18 18 16 13 11 12 11 6 9 14 16 15 16 20 12 10 8 1 6 9 5 5 8 7 8 9 10 24 27 31 35 42
25 25 21 22 21 19 18 19 19 18 19 16 15 17 17 18 16 11 18 14 10 10 5 3 11 21 21 17 8 2 14 15 16 14 14 10 9 9 9 10 11 15 12 8 28 38 38
30 31 27 26 23 21 21 20 18 18 19 15 15 12 16 18 16 13 9 11 15 12 7 8 26 23 12 5 4 7 4 9 10 9 20 17 9 8 7 6 7 12 21 22 24 32 32
29 32 30 28 26 23 22 20 19 17 17 15 12 12 13 14 11 12 12 10 12 11 8 1 11 22 10 23 23 2 4 12 7 8 11 14 15 7 5 9 6 23 25 28 30 25 17
28 29 29 29 27 26 23 21 20 18 16 15 12 9 9 11 9 8 5 6 5 5 8 7 7 16 22 23 24 25 2 17 10 3 13 14 16 15 11 4 4 25 30 21 34 32 25
27 25 28 28 28 27 24 21 20 18 16 14 12 10 12 10 9 12 12 10 10 9 2 7 7 13 18 22 24 26 25 19 5 6 19 19 19 13 16 6 4 13 11 25 36 39 37
Wind_Direction
81 83 84 82 79 326 335 331 328 328 325 323 321 319 317 315 313 311 310 311 311 309 307 308 311 313 314 313 313 328 320 313 306 303 293 285 279 274 266 267 265 259 259 261 262 264 262
84 79 71 68 66 42 350 338 336 334 328 325 319 315 311 310 310 309 308 309 311 311 311 317 320 322 320 306 322 320 313 310 308 303 297 291 282 280 275 271 264 269 266 261 263 263 262
72 76 72 60 43 31 9 340 331 329 329 326 325 322 317 314 313 311 309 307 309 311 315 321 329 330 317 318 328 321 316 311 309 300 296 296 292 280 282 278 272 270 267 267 263 263 259
75 55 58 65 55 36 14 338 317 308 306 306 306 311 311 308 306 306 307 306 305 314 325 331 337 329 320 339 330 325 320 312 311 308 297 293 291 285 276 275 274 276 270 265 261 263 264
325 67 64 62 59 54 42 310 306 305 302 301 300 305 306 303 301 298 292 293 303 343 354 351 348 341 325 345 332 325 323 316 312 306 300 297 291 286 282 274 272 269 265 265 267 264 264
24 50 63 49 34 351 319 314 309 306 303 299 293 289 283 277 273 272 270 257 357 12 12 10 341 334 336 326 324 323 324 319 315 313 304 295 291 284 279 271 265 269 268 267 265 265 263
12 17 33 338 318 325 316 314 312 308 305 301 297 291 283 274 265 255 288 10 1 1 2 320 318 321 322 325 328 329 331 323 319 312 302 299 285 281 282 279 275 273 271 269 269 270 266
10 4 358 348 329 321 321 315 310 308 309 309 305 296 285 271 251 232 51 5 2 350 333 339 332 334 333 336 328 329 335 320 315 306 304 297 285 289 286 284 281 275 272 268 270 269 273
4 1 358 353 349 349 341 332 321 315 312 312 312 303 286 261 229 67 31 16 15 3 355 360 6 353 343 341 326 325 327 322 315 307 304 294 291 290 288 284 282 279 274 271 270 270 267
7 2 359 356 352 348 345 340 331 323 320 321 315 308 283 91 44 29 42 23 23 15 356 15 11 3 354 343 329 340 334 325 317 307 302 296 298 291 287 283 282 278 280 276 270 268 262
13 6 2 358 352 347 342 335 330 324 315 311 317 319 7 50 20 27 15 25 20 38 357 15 9 9 359 344 336 337 345 326 313 308 306 297 294 289 285 285 286 280 283 277 273 266 266
18 9 6 2 359 351 347 342 333 330 321 312 316 327 14 33 36 20 26 21 41 17 358 8 10 360 347 342 342 341 340 333 321 313 308 300 301 298 289 287 286 291 285 278 274 267 260
23 20 17 12 6 360 351 348 343 338 334 323 319 351 31 19 9 18 24 32 11 6 17 10 0 353 347 346 344 345 338 332 323 314 309 308 305 311 304 292 287 286 285 277 269 262 261
25 20 17 13 11 5 359 351 344 338 333 322 314 4 32 31 17 21 26 22 5 4 360 2 0 352 351 354 352 348 343 339 338 331 316 309 303 318 298 307 287 286 279 276 272 267 267
21 17 15 12 9 5 3 359 349 344 334 327 317 15 22 28 19 16 19 7 360 358 5 360 358 359 3 360 356 357 11 12 22 2 324 307 304 290 297 302 302 292 278 284 277 274 271
20 17 14 12 9 4 6 6 355 354 339 317 358 5 21 14 17 18 16 2 1 10 5 3 357 5 355 354 357 7 19 68 77 42 354 318 283 291 295 295 287 281 272 281 283 271 263
19 17 13 11 8 6 6 7 5 358 341 351 18 7 17 16 14 21 8 5 1 8 8 9 3 353 354 359 7 263 12 250 34 55 336 247 242 262 264 279 256 300 238 240 270 265 263
17 15 14 13 11 11 11 13 14 15 10 16 25 18 24 15 11 22 17 6 7 11 15 10 5 359 8 215 252 249 247 242 29 330 250 250 249 231 228 248 203 243 261 222 243 263 215
15 14 13 10 13 17 13 13 10 11 13 24 34 35 32 27 19 3 11 6 8 12 14 16 12 12 208 248 249 238 264 343 353 351 8 348 69 222 219 208 206 267 270 249 252 246 222
11 8 12 12 17 19 17 18 19 19 23 32 44 40 50 42 34 14 2 10 8 18 15 19 26 90 217 242 249 256 270 286 348 339 308 321 238 228 226 240 299 284 253 266 250 230 219
8 9 360 14 23 20 21 22 24 22 8 53 46 34 35 25 13 5 8 8 8 11 25 27 34 90 229 256 266 267 287 278 280 268 246 334 267 250 232 234 258 275 263 257 241 237 227
9 4 11 22 23 22 25 27 28 31 11 60 48 45 40 21 20 7 9 11 10 13 10 7 23 238 254 252 261 277 278 277 283 15 98 169 241 217 237 229 241 261 261 257 247 244 242
9 7 18 20 23 23 26 29 31 33 40 47 44 40 30 20 23 13 5 6 8 8 28 35 225 256 262 262 274 277 271 267 261 260 28 37 72 105 211 209 212 241 248 253 253 247 247
11 15 18 18 18 22 24 27 31 34 39 44 42 36 29 20 19 14 9 8 9 9 344 257 239 244 252 271 281 278 250 241 279 60 61 54 173 164 169 176 150 169 224 265 261 258 253
6 10 15 14 16 19 22 26 29 35 37 41 46 41 35 24 19 18 25 16 2 14 10 227 223 272 269 271 267 347 70 64 63 59 53 73 88 138 147 156 189 202 157 238 266 249 249
358 357 6 10 15 19 21 24 29 32 34 41 43 55 39 26 41 27 355 18 19 22 36 52 283 270 232 218 134 245 146 69 75 59 42 47 86 122 109 130 104 36 273 312 291 245 246
358 352 357 4 10 15 19 21 24 27 29 32 34 46 37 22 22 37 28 19 19 27 32 16 344 314 44 295 301 118 205 42 63 44 39 49 46 79 170 193 157 284 296 283 241 224 253
358 355 355 359 4 8 13 16 17 21 24 26 25 31 28 10 339 318 357 10 10 27 28 37 35 19 299 317 312 314 128 25 47 345 40 45 38 43 47 162 61 295 274 221 247 250 262
358 1 356 357 0 1 7 10 13 15 18 20 13 28 29 7 334 301 275 263 238 224 204 45 61 21 357 332 324 305 285 9 22 51 27 35 29 34 31 91 237 250 235 246 244 240 236